TIANWANG 1B (TW-1B)
1 40927U 15051C   19159.57650141  .00009415  00000-0  14707-3 0  9999
2 40927  97.1386 205.1529 0010073  67.5455  92.6649 15.53957883208443
TIANWANG 1A (TW-1A)
1 40928U 15051D   19159.49950944  .00002679  00000-0  67440-4 0  9993
2 40928  97.1453 191.0290 0013005 107.6428  26.0227 15.40708379207601
LAPAN A2
1 40931U 15052B   19159.48772771  .00000576  00000-0 -88668-5 0  9998
2 40931   5.9941 129.3994 0013203   7.7878 352.2572 14.76607296199755
LQSAT
1 40958U 15057A   19158.76356414 -.00000027 +00000-0 +35004-5 0  9991
2 40958 097.8973 228.2534 0016765 277.1868 082.7433 14.73080175197203
CHUBUSAT 2
1 41338U 16012B   19159.51137111  .00000228  00000-0  11017-4 0  9990
2 41338  31.0020 209.4677 0013851   2.1325 357.9368 15.00148420181380
CHUBUSAT 3
1 41339U 16012C   19159.48205638  .00000274  00000-0  14585-4 0  9991
2 41339  31.0093 207.7625 0013684   9.4663 350.6230 15.00324853181377
OUFTI-1
1 41458U 16025C   19159.28902870  .00000819  00000-0  45614-4 0  9999
2 41458  98.1017 245.6028 0167401  32.5705 328.5714 15.05789987171017
E-STAR-2
1 41459U 16025D   19159.23655070  .00001253  00000-0  67900-4 0  9997
2 41459  98.1013 245.2159 0168341  33.9663 327.2204 15.05434878170977
AAUSAT 4
1 41460U 16025E   19159.29158723  .00001672  00000-0  87371-4 0  9997
2 41460  98.0965 246.4895 0158314  26.7294 334.1987 15.07304688171101
NUSAT 1
1 41557U 16033B   19159.49513367  .00000938  00000-0  37928-4 0  9991
2 41557  97.4178 247.0541 0013127 340.8473  19.2270 15.27183095168531
BEESAT 4
1 41619U 16040W   19158.87206122 +.00001155 +00000-0 +51849-4 0  9997
2 41619 097.3681 221.2970 0012938 065.9576 294.3013 15.23093360152216
PRATHAM
1 41783U 16059A   19158.72485373 +.00000023 +00000-0 +13646-4 0  9996
2 41783 098.0680 218.5484 0034751 059.9507 300.5134 14.62993883143943
ALSAT 1N
1 41789U 16059G   19159.40621401  .00000070  00000-0  22192-4 0  9990
2 41789  98.0705 221.1857 0029481  47.8939 312.4768 14.64242676144147
NAYIF 1
1 42017U 17008BX  19159.26802144  .00001222  00000-0  51084-4 0  9991
2 42017  97.4036 226.4691 0005783 189.9519 170.1605 15.25491712128334
MAX VALIER SAT
1 42778U 17036P   19159.46960650  .00000717  00000-0  34402-4 0  9998
2 42778  97.3551 217.3609 0010631 258.3843 101.6201 15.21991842108688
